Home   Weather   Carlisle   Past weeks
Flag for United Kingdom

Past Weather in Carlisle, England, United Kingdom — Yesterday and Last 2 Weeks

Now
41 °F

Quite cool.


Feels Like: N/A
Forecast: 50 / 39 °F
Wind: N/A

Location: Carlisle

Current Time: Oct 20, 2019 at 4:56:03 am

Latest Report: Oct 20, 2019 at 4:00 am


Visibility: 37 mi

Pressure: 29.80 "Hg

Humidity: 92%

Dew Point: 39 °F

Location of CarlisleLocation

Past Weather in Carlisle — Graph

°F

Carlisle Temperature Yesterday

Maximum temperature yesterday: 50 °F (at 3:00 pm)
Minimum temperature yesterday: 35 °F (at 7:00 am)
Average temperature yesterday: 43 °F

High & Low Weather Summary for the Past Weeks

 TemperatureHumidityPressure
High59 °F (Oct 7, 5:00 pm)100% (Oct 13, 8:00 pm)30.00 "Hg (Oct 13, 8:00 pm)
Low35 °F (Oct 19, 7:00 am)60% (Oct 17, 3:00 pm)29.32 "Hg (Oct 18, 1:00 pm)
Average51 °F85%29.58 "Hg
* Reported Oct 5 3:00 am — Oct 20 3:00 am, Carlisle. Weather by CustomWeather, © 2019

Note: Actual official high and low records may vary slightly from our data, if they occured in-between our weather recording intervals... More about our weather records

Advertising

Carlisle Weather History for the Previous 24 Hours

Scroll right to see more
 ConditionsComfort  
Time TempWeatherWind HumidityBarometerVisibility
3:00 am
Sun, Oct 20
43 °FQuite cool.N/A91%29.78 "Hg47 mi
2:00 am44 °FQuite cool.N/A89%29.77 "Hg47 mi
1:00 am42 °FQuite cool.N/A92%29.75 "Hg47 mi
12:00 am44 °FQuite cool.N/A91%29.73 "Hg43 mi
11:00 pm
Sat, Oct 19
44 °FQuite cool.N/A90%29.70 "Hg40 mi
10:00 pm45 °FQuite cool.N/A88%29.68 "Hg34 mi
9:00 pm45 °FQuite cool.N/A89%29.66 "Hg31 mi
8:00 pm47 °FCool.N/A87%29.64 "Hg31 mi
7:00 pm47 °FCool.N/A91%29.62 "Hg19 mi
6:00 pm48 °FCool.N/A89%29.60 "Hg22 mi
5:00 pm49 °FCool.N/A81%29.58 "Hg25 mi
4:00 pm49 °FCool.N/A81%29.56 "Hg11 mi
3:00 pm50 °FCool.N/A88%29.53 "Hg28 mi
2:00 pm49 °FCool.N/A95%29.50 "Hg19 mi
1:00 pm48 °FCool.N/A99%29.47 "Hg11 mi
12:00 pm47 °FCool.N/A100%29.44 "Hg19 mi
11:00 am45 °FCool.N/A100%29.44 "Hg7 mi
10:00 am40 °FQuite cool.N/A100%29.44 "Hg6 mi
9:00 am37 °FChilly.N/A100%29.44 "Hg5 mi
8:00 am35 °FChilly.N/A100%29.41 "Hg5 mi
7:00 am35 °FChilly.N/A99%29.41 "Hg8 mi
6:00 am35 °FChilly.N/A99%29.38 "Hg3 mi
5:00 am36 °FChilly.N/A99%29.38 "Hg6 mi
4:00 am37 °FChilly.N/A99%29.38 "Hg7 mi
Weather by CustomWeather, © 2019

See weather overview